Airfield :
LOGIN :

Register | Disclaimer

   EN    FR    IT 

 










Legend :    VFR   Marginal VFR   IFR   Intensive IFR   Very Intensive IFR
Visi :
Ceiling :
>= 8 km
>= 3000ft
5 to 8 km
1000 to 3000 ft
1500m to 5 km
500 to 1000 ft
800 to 1500m
200 to 500 ft
< 800m
< 200 ft
Symbols :   Thunderstorms  Fog  Heavy snow  Heavy precipitations  Wind > 20 kt
SIGMETs :     Misc.  Thunderstorms  Icing  Turbulence  Mountain Waves  Volcanic Ashes






- Airport Elevation : 95 ft
- IATA code : AHU


GMTA - Al Hoceima

CURRENT METAR :
  • 221500Z 07012KT 040V100 CAVOK 18/08 Q1022 NOSIG

EXPIRED METARs :
  • 221400Z 06014KT 030V090 CAVOK 18/06 Q1022 NOSIG
  • 221300Z 36008KT 330V030 CAVOK 18/06 Q1023 NOSIG

TAF TAF GMTA
Valid from the 22 at 12:00 until the 23 at 18:00 UTC


221100Z 2212/2318 21006KT 8000 NSC



MET'MAP, your aeronautical weather chart ! - Copyright ORBIFLY December 2007 - Disclaimer

ORBIFLY MET'MAP TEAM :

Programming & Development : Alexandra Zaïnal
Concept & original design : Baudouin d'Aumeries
Assistance for programming : Marc-Olivier Méhu
Technical & hardware support : Manuel Goepfert

Contact : metmap@orbifly.com




SOURCES & CREDITS :

   NOAA